Погода в Острове

Россия / Вологодская область     60°33′17″N   37°52′56″E
темп.,
°C
ветер,
м/с
пор.,
м/с
влажн.,
%
обл.,
%
осадки,
мм/ч
давл.,
гПа
погр.,
м
18 января, вт
вт1800:00−9сз3119286 0.0 988400
03:00−9зсз4119299 0.0 992451
06:00−7сз41289100 0.0 995626
09:00−7сз51388100 0.1 999695
12:00−7сз51288100 0.0 1003791
15:00−8сз51189100 0.1 1006623
18:00−10сз51391100 0.0 1009537
21:00−10сз4139294 0.1 1011462
19 января, ср
ср1900:00−14зсз399784 0.0 1013216
03:00−16зюз269873 0.0 101388
06:00−17ююз2698100 0.0 101278
09:00−12ююз31293100 0.0 1009226
12:00−8ююз41194100 0.2 1007363
15:00−6ююз4119499 0.7 1005430
18:00−5ююз41295100 0.4 1003452
21:00−4ююз51395100 0.5 1001493
20 января, чт
чт2000:00
03:00−2ююз61394100 0.1 997814
06:00−1ююз61394100 0.1 996730
09:00
12:00−1ююз51394100 0.0 997613
15:00−2ю51294100 0.0 997573
18:00−3ю51294100 0.0 998602
21:00−3ююв51295100 0.2 998635
21 января, пт
пт2100:00−4ю41295100 1.3 999632
03:00−5ю41195100 2.1 1001521
06:00−6ююв41095100 0.5 1002453
09:00−7ююв3994100 0.9 1005429
12:00−7ююв3994100 0.3 1007445
15:00−7юв3894100 0.5 1008468
18:00−8вюв3894100 0.3 1010388
21:00−9вюв389495 0.4 1012334
22 января, сб
сб2200:00−9вюв3796100 0.1 1014229
03:00−11в279775 0.1 1015167
06:00−13всв269873 0.0 1016113
09:00−12всв259776 0.1 1017130
12:00−10в249588 0.1 1018168
15:00−8всв1395100 0.3 1019184
18:00−10в249881 0.3 102171
21:00−13в119980 0.3 10239